Year,Month,Day,Hour,Minute,Value (Times are PST for temperature in C)
2019,04,26,00,00,8.70
2019,04,26,00,01,8.70
2019,04,26,00,02,8.60
2019,04,26,00,03,8.60
2019,04,26,00,04,8.60
2019,04,26,00,05,8.60
2019,04,26,00,06,8.60
2019,04,26,00,07,8.50
2019,04,26,00,08,8.50
2019,04,26,00,09,8.50
2019,04,26,00,10,8.40
2019,04,26,00,11,8.40
2019,04,26,00,12,8.40
2019,04,26,00,13,8.40
2019,04,26,00,14,8.40
2019,04,26,00,15,8.40
2019,04,26,00,16,8.40
2019,04,26,00,17,8.40
2019,04,26,00,18,8.40
2019,04,26,00,19,8.30
2019,04,26,00,20,8.30
2019,04,26,00,21,8.30
2019,04,26,00,22,8.30
2019,04,26,00,23,8.30
2019,04,26,00,24,8.20
2019,04,26,00,25,8.20
2019,04,26,00,26,8.20
2019,04,26,00,27,8.20
2019,04,26,00,28,8.20
2019,04,26,00,29,8.10
2019,04,26,00,30,8.10
2019,04,26,00,31,8.10
2019,04,26,00,32,8.10
2019,04,26,00,33,8.10
2019,04,26,00,34,8.00
2019,04,26,00,35,8.00
2019,04,26,00,36,8.00
2019,04,26,00,37,7.90
2019,04,26,00,38,7.90
2019,04,26,00,39,7.90
2019,04,26,00,40,7.90
2019,04,26,00,41,7.90
2019,04,26,00,42,7.90
2019,04,26,00,43,7.90
2019,04,26,00,44,7.90
2019,04,26,00,45,7.80
2019,04,26,00,46,7.80
2019,04,26,00,47,7.80
2019,04,26,00,48,7.80
2019,04,26,00,49,7.80
2019,04,26,00,50,7.80
2019,04,26,00,51,7.80
2019,04,26,00,52,7.80
2019,04,26,00,53,7.80
2019,04,26,00,54,7.80
2019,04,26,00,55,7.70
2019,04,26,00,56,7.70
2019,04,26,00,57,7.70
2019,04,26,00,58,7.70
2019,04,26,00,59,7.70
2019,04,26,01,00,7.60
2019,04,26,01,02,7.60
2019,04,26,01,03,7.60
2019,04,26,01,04,7.60
2019,04,26,01,05,7.60
2019,04,26,01,06,7.60
2019,04,26,01,07,7.60
2019,04,26,01,08,7.50
2019,04,26,01,09,7.50
2019,04,26,01,10,7.50
2019,04,26,01,11,7.40
2019,04,26,01,12,7.40
2019,04,26,01,13,7.40
2019,04,26,01,14,7.40
2019,04,26,01,15,7.40
2019,04,26,01,16,7.30
2019,04,26,01,17,7.30
2019,04,26,01,18,7.30
2019,04,26,01,19,7.30
2019,04,26,01,20,7.30
2019,04,26,01,21,7.30
2019,04,26,01,22,7.20
2019,04,26,01,23,7.20
2019,04,26,01,24,7.20
2019,04,26,01,25,7.20
2019,04,26,01,26,7.20
2019,04,26,01,27,7.20
2019,04,26,01,28,7.20
2019,04,26,01,29,7.20
2019,04,26,01,30,7.20
2019,04,26,01,31,7.20
2019,04,26,01,32,7.10
2019,04,26,01,33,7.10
2019,04,26,01,34,7.10
2019,04,26,01,35,7.10
2019,04,26,01,36,7.00
2019,04,26,01,37,7.00
2019,04,26,01,38,7.00
2019,04,26,01,39,6.90
2019,04,26,01,40,6.90
2019,04,26,01,41,6.90
2019,04,26,01,42,6.90
2019,04,26,01,43,6.90
2019,04,26,01,44,6.80
2019,04,26,01,45,6.80
2019,04,26,01,46,6.80
2019,04,26,01,47,6.80
2019,04,26,01,48,6.80
2019,04,26,01,49,6.80
2019,04,26,01,50,6.80
2019,04,26,01,51,6.80
2019,04,26,01,52,6.80
2019,04,26,01,53,6.80
2019,04,26,01,54,6.80
2019,04,26,01,55,6.80
2019,04,26,01,56,6.80
2019,04,26,01,57,6.70
2019,04,26,01,58,6.70
2019,04,26,01,59,6.70
2019,04,26,02,00,6.70
2019,04,26,02,01,6.70
2019,04,26,02,02,6.70
2019,04,26,02,03,6.70
2019,04,26,02,04,6.70
2019,04,26,02,05,6.70
2019,04,26,02,06,6.70
2019,04,26,02,07,6.60
2019,04,26,02,08,6.60
2019,04,26,02,09,6.60
2019,04,26,02,10,6.60
2019,04,26,02,11,6.60
2019,04,26,02,12,6.60
2019,04,26,02,13,6.50
2019,04,26,02,14,6.50
2019,04,26,02,15,6.50
2019,04,26,02,16,6.50
2019,04,26,02,17,6.40
2019,04,26,02,18,6.40
2019,04,26,02,19,6.40
2019,04,26,02,20,6.40
2019,04,26,02,21,6.40
2019,04,26,02,22,6.40
2019,04,26,02,23,6.30
2019,04,26,02,24,6.30
2019,04,26,02,25,6.30
2019,04,26,02,26,6.30
2019,04,26,02,27,6.30
2019,04,26,02,28,6.30
2019,04,26,02,29,6.30
2019,04,26,02,30,6.20
2019,04,26,02,31,6.20
2019,04,26,02,32,6.20
2019,04,26,02,33,6.20
2019,04,26,02,34,6.20
2019,04,26,02,35,6.20
2019,04,26,02,36,6.20
2019,04,26,02,37,6.20
2019,04,26,02,38,6.20
2019,04,26,02,39,6.20
2019,04,26,02,40,6.20
2019,04,26,02,41,6.20
2019,04,26,02,42,6.20
2019,04,26,02,43,6.20
2019,04,26,02,44,6.20
2019,04,26,02,45,6.20
2019,04,26,02,46,6.20
2019,04,26,02,47,6.10
2019,04,26,02,48,6.10
2019,04,26,02,49,6.10
2019,04,26,02,50,6.10
2019,04,26,02,51,6.10
2019,04,26,02,52,6.10
2019,04,26,02,53,6.10
2019,04,26,02,54,6.00
2019,04,26,02,55,6.00
2019,04,26,02,56,6.00
2019,04,26,02,57,6.00
2019,04,26,02,58,5.90
2019,04,26,02,59,5.90
2019,04,26,03,00,5.90
2019,04,26,03,01,5.90
2019,04,26,03,02,5.90
2019,04,26,03,03,5.90
2019,04,26,03,04,5.90
2019,04,26,03,05,5.80
2019,04,26,03,06,5.80
2019,04,26,03,07,5.80
2019,04,26,03,08,5.80
2019,04,26,03,09,5.80
2019,04,26,03,10,5.80
2019,04,26,03,11,5.80
2019,04,26,03,12,5.80
2019,04,26,03,13,5.70
2019,04,26,03,14,5.70
2019,04,26,03,15,5.70
2019,04,26,03,16,5.70
2019,04,26,03,17,5.70
2019,04,26,03,18,5.70
2019,04,26,03,19,5.70
2019,04,26,03,20,5.70
2019,04,26,03,21,5.70
2019,04,26,03,22,5.70
2019,04,26,03,23,5.70
2019,04,26,03,24,5.70
2019,04,26,03,25,5.70
2019,04,26,03,26,5.70
2019,04,26,03,27,5.70
2019,04,26,03,28,5.70
2019,04,26,03,29,5.70
2019,04,26,03,30,5.70
2019,04,26,03,31,5.70
2019,04,26,03,32,5.60
2019,04,26,03,33,5.60
2019,04,26,03,34,5.60
2019,04,26,03,35,5.60
2019,04,26,03,36,5.60
2019,04,26,03,37,5.60
2019,04,26,03,38,5.60
2019,04,26,03,39,5.50
2019,04,26,03,40,5.50
2019,04,26,03,41,5.40
2019,04,26,03,42,5.40
2019,04,26,03,43,5.40
2019,04,26,03,44,5.40
2019,04,26,03,45,5.40
2019,04,26,03,46,5.40
2019,04,26,03,47,5.30
2019,04,26,03,48,5.30
2019,04,26,03,49,5.30
2019,04,26,03,50,5.30
2019,04,26,03,51,5.30
2019,04,26,03,52,5.30
2019,04,26,03,53,5.20
2019,04,26,03,54,5.20
2019,04,26,03,55,5.20
2019,04,26,03,56,5.20
2019,04,26,03,57,5.20
2019,04,26,03,58,5.20
2019,04,26,03,59,5.10
2019,04,26,04,00,5.10
2019,04,26,04,01,5.10
2019,04,26,04,02,5.10
2019,04,26,04,03,5.10
2019,04,26,04,04,5.00
2019,04,26,04,05,5.00
2019,04,26,04,06,5.00
2019,04,26,04,07,4.90
2019,04,26,04,08,4.90
2019,04,26,04,09,4.90
2019,04,26,04,10,4.90
2019,04,26,04,11,4.90
2019,04,26,04,12,4.90
2019,04,26,04,13,4.90
2019,04,26,04,14,4.80
2019,04,26,04,15,4.80
2019,04,26,04,16,4.80
2019,04,26,04,17,4.80
2019,04,26,04,18,4.80
2019,04,26,04,19,4.80
2019,04,26,04,20,4.80
2019,04,26,04,21,4.80
2019,04,26,04,22,4.80
2019,04,26,04,23,4.80
2019,04,26,04,24,4.70
2019,04,26,04,25,4.70
2019,04,26,04,26,4.70
2019,04,26,04,27,4.70
2019,04,26,04,28,4.70
2019,04,26,04,29,4.70
2019,04,26,04,30,4.60
2019,04,26,04,31,4.60
2019,04,26,04,32,4.60
2019,04,26,04,33,4.60
2019,04,26,04,34,4.60
2019,04,26,04,35,4.60
2019,04,26,04,36,4.60
2019,04,26,04,37,4.60
2019,04,26,04,38,4.50
2019,04,26,04,39,4.50
2019,04,26,04,40,4.50
2019,04,26,04,41,4.50
2019,04,26,04,42,4.50
2019,04,26,04,43,4.50
2019,04,26,04,44,4.50
2019,04,26,04,45,4.40
2019,04,26,04,46,4.40
2019,04,26,04,47,4.40
2019,04,26,04,48,4.40
2019,04,26,04,49,4.40
2019,04,26,04,50,4.40
2019,04,26,04,51,4.50
2019,04,26,04,52,4.40
2019,04,26,04,53,4.50
2019,04,26,04,54,4.40
2019,04,26,04,55,4.40
2019,04,26,04,56,4.40
2019,04,26,04,57,4.40
2019,04,26,04,58,4.50
2019,04,26,04,59,4.50
2019,04,26,05,00,4.60
2019,04,26,05,01,4.60
2019,04,26,05,02,4.60
2019,04,26,05,03,4.60
2019,04,26,05,04,4.60
2019,04,26,05,05,4.60
2019,04,26,05,06,4.60
2019,04,26,05,07,4.60
2019,04,26,05,08,4.60
2019,04,26,05,09,4.60
2019,04,26,05,10,4.60
2019,04,26,05,11,4.60
2019,04,26,05,12,4.60
2019,04,26,05,13,4.50
2019,04,26,05,14,4.50
2019,04,26,05,15,4.50
2019,04,26,05,16,4.50
2019,04,26,05,17,4.50
2019,04,26,05,18,4.50
2019,04,26,05,19,4.50
2019,04,26,05,20,4.60
2019,04,26,05,21,4.50
2019,04,26,05,22,4.60
2019,04,26,05,23,4.50
2019,04,26,05,24,4.60
2019,04,26,05,25,4.50
2019,04,26,05,26,4.50
2019,04,26,05,27,4.50
2019,04,26,05,28,4.40
2019,04,26,05,29,4.40
2019,04,26,05,30,4.40
2019,04,26,05,31,4.40
2019,04,26,05,32,4.30
2019,04,26,05,33,4.30
2019,04,26,05,34,4.30
2019,04,26,05,35,4.30
2019,04,26,05,36,4.30
2019,04,26,05,37,4.30
2019,04,26,05,38,4.30
2019,04,26,05,39,4.30
2019,04,26,05,40,4.30
2019,04,26,05,41,4.30
2019,04,26,05,42,4.30
2019,04,26,05,43,4.20
2019,04,26,05,44,4.20
2019,04,26,05,45,4.20
2019,04,26,05,46,4.20
2019,04,26,05,47,4.20
2019,04,26,05,48,4.20
2019,04,26,05,49,4.20
2019,04,26,05,50,4.20
2019,04,26,05,51,4.20
2019,04,26,05,52,4.10
2019,04,26,05,53,4.10
2019,04,26,05,54,4.10
2019,04,26,05,55,4.10
2019,04,26,05,56,4.10
2019,04,26,05,57,4.10
2019,04,26,05,58,4.00
2019,04,26,05,59,4.00
2019,04,26,06,00,4.00
2019,04,26,06,01,4.00
2019,04,26,06,02,3.90
2019,04,26,06,03,3.90
2019,04,26,06,04,3.90
2019,04,26,06,05,3.90
2019,04,26,06,06,3.90
2019,04,26,06,07,3.90
2019,04,26,06,08,3.90
2019,04,26,06,09,3.90
2019,04,26,06,10,3.90
2019,04,26,06,11,3.90
2019,04,26,06,12,3.80
2019,04,26,06,13,3.80
2019,04,26,06,14,3.80
2019,04,26,06,15,3.80
2019,04,26,06,16,3.80
2019,04,26,06,17,3.80
2019,04,26,06,18,3.80
2019,04,26,06,19,3.80
2019,04,26,06,20,3.80
2019,04,26,06,21,3.70
2019,04,26,06,22,3.70
2019,04,26,06,23,3.70
2019,04,26,06,24,3.70
2019,04,26,06,25,3.70
2019,04,26,06,26,3.70
2019,04,26,06,27,3.70
2019,04,26,06,28,3.70
2019,04,26,06,29,3.70
2019,04,26,06,30,3.70
2019,04,26,06,31,3.70
2019,04,26,06,32,3.70
2019,04,26,06,33,3.70
2019,04,26,06,34,3.70
2019,04,26,06,35,3.70
2019,04,26,06,36,3.70
2019,04,26,06,37,3.70
2019,04,26,06,38,3.70
2019,04,26,06,39,3.70
2019,04,26,06,40,3.70
2019,04,26,06,41,3.70
2019,04,26,06,42,3.70
2019,04,26,06,43,3.70
2019,04,26,06,44,3.70
2019,04,26,06,45,3.70
2019,04,26,06,46,3.70
2019,04,26,06,47,3.70
2019,04,26,06,48,3.70
2019,04,26,06,49,3.80
2019,04,26,06,50,3.80
2019,04,26,06,51,3.80
2019,04,26,06,52,3.80
2019,04,26,06,53,3.80
2019,04,26,06,54,3.80
2019,04,26,06,55,3.80
2019,04,26,06,56,3.80
2019,04,26,06,57,3.90
2019,04,26,06,58,3.90
2019,04,26,06,59,3.90
2019,04,26,07,00,4.00
2019,04,26,07,01,4.10
2019,04,26,07,02,4.10
2019,04,26,07,03,4.10
2019,04,26,07,04,4.20
2019,04,26,07,05,4.20
2019,04,26,07,06,4.20
2019,04,26,07,07,4.30
2019,04,26,07,08,4.30
2019,04,26,07,09,4.30
2019,04,26,07,10,4.30
2019,04,26,07,11,4.40
2019,04,26,07,12,4.50
2019,04,26,07,13,4.50
2019,04,26,07,14,4.60
2019,04,26,07,15,4.60
2019,04,26,07,16,4.70
2019,04,26,07,17,4.70
2019,04,26,07,18,4.70
2019,04,26,07,19,4.70
2019,04,26,07,20,4.80
2019,04,26,07,21,4.80
2019,04,26,07,22,4.80
2019,04,26,07,23,4.80
2019,04,26,07,24,4.80
2019,04,26,07,25,4.80
2019,04,26,07,26,4.80
2019,04,26,07,27,4.80
2019,04,26,07,28,4.80
2019,04,26,07,29,4.80
2019,04,26,07,30,4.80
2019,04,26,07,31,4.80
2019,04,26,07,32,4.80
2019,04,26,07,33,4.80
2019,04,26,07,34,4.80
2019,04,26,07,35,4.80
2019,04,26,07,36,4.80
2019,04,26,07,37,4.80
2019,04,26,07,38,4.80
2019,04,26,07,39,4.80
2019,04,26,07,40,4.90
2019,04,26,07,41,4.90
2019,04,26,07,42,4.90
2019,04,26,07,43,5.00
2019,04,26,07,44,5.00
2019,04,26,07,45,5.00
2019,04,26,07,46,5.10
2019,04,26,07,47,5.10
2019,04,26,07,48,5.10
2019,04,26,07,49,5.20
2019,04,26,07,50,5.20
2019,04,26,07,51,5.30
2019,04,26,07,52,5.30
2019,04,26,07,53,5.40
2019,04,26,07,54,5.40
2019,04,26,07,55,5.50
2019,04,26,07,56,5.60
2019,04,26,07,57,5.70
2019,04,26,07,58,5.70
2019,04,26,07,59,5.80
2019,04,26,08,00,5.80
2019,04,26,08,01,5.90
2019,04,26,08,02,6.00
2019,04,26,08,03,6.00
2019,04,26,08,04,6.10
2019,04,26,08,05,6.10
2019,04,26,08,06,6.20
2019,04,26,08,07,6.20
2019,04,26,08,08,6.20
2019,04,26,08,09,6.30
2019,04,26,08,10,6.30
2019,04,26,08,11,6.30
2019,04,26,08,12,6.30
2019,04,26,08,13,6.30
2019,04,26,08,14,6.30
2019,04,26,08,15,6.30
2019,04,26,08,16,6.20
2019,04,26,08,17,6.20
2019,04,26,08,18,6.20
2019,04,26,08,19,6.20
2019,04,26,08,20,6.20
2019,04,26,08,21,6.20
2019,04,26,08,22,6.20
2019,04,26,08,23,6.20
2019,04,26,08,24,6.30
2019,04,26,08,25,6.30
2019,04,26,08,26,6.30
2019,04,26,08,27,6.30
2019,04,26,08,28,6.40
2019,04,26,08,29,6.40
2019,04,26,08,30,6.60
2019,04,26,08,31,6.60
2019,04,26,08,32,6.70
2019,04,26,08,33,6.80
2019,04,26,08,34,6.80
2019,04,26,08,35,6.90
2019,04,26,08,36,7.00
2019,04,26,08,37,7.00
2019,04,26,08,38,7.10
2019,04,26,08,39,7.10
2019,04,26,08,40,7.20
2019,04,26,08,41,7.20
2019,04,26,08,42,7.20
2019,04,26,08,43,7.20
2019,04,26,08,44,7.30
2019,04,26,08,45,7.30
2019,04,26,08,46,7.30
2019,04,26,08,47,7.40
2019,04,26,08,48,7.40
2019,04,26,08,49,7.60
2019,04,26,08,50,7.60
2019,04,26,08,51,7.70
2019,04,26,08,52,7.70
2019,04,26,08,53,7.70
2019,04,26,08,54,7.80
2019,04,26,08,55,7.80
2019,04,26,08,56,7.80
2019,04,26,08,57,7.80
2019,04,26,08,58,7.80
2019,04,26,08,59,7.90
2019,04,26,09,00,7.90
2019,04,26,09,01,7.90
2019,04,26,09,02,7.90
2019,04,26,09,03,7.90
2019,04,26,09,04,7.90
2019,04,26,09,05,7.90
2019,04,26,09,06,7.90
2019,04,26,09,07,7.90
2019,04,26,09,08,7.90
2019,04,26,09,09,7.90
2019,04,26,09,10,7.90
2019,04,26,09,12,7.90
2019,04,26,09,13,7.90
2019,04,26,09,15,8.00
2019,04,26,09,16,8.10
2019,04,26,09,17,8.10
2019,04,26,09,18,8.10
2019,04,26,09,19,8.20
2019,04,26,09,20,8.20
2019,04,26,09,21,8.30
2019,04,26,09,22,8.30
2019,04,26,09,23,8.40
2019,04,26,09,24,8.40
2019,04,26,09,25,8.40
2019,04,26,09,26,8.40
2019,04,26,09,27,8.50
2019,04,26,09,28,8.60
2019,04,26,09,29,8.60
2019,04,26,09,30,8.70
2019,04,26,09,31,8.80
2019,04,26,09,32,8.80
2019,04,26,09,33,8.90
2019,04,26,09,34,9.00
2019,04,26,09,35,9.10
2019,04,26,09,36,9.20
2019,04,26,09,37,9.20
2019,04,26,09,38,9.30
2019,04,26,09,39,9.40
2019,04,26,09,40,9.40
2019,04,26,09,41,9.40
2019,04,26,09,42,9.40
2019,04,26,09,43,9.40
2019,04,26,09,44,9.50
2019,04,26,09,45,9.50
2019,04,26,09,46,9.50
2019,04,26,09,47,9.50
2019,04,26,09,48,9.50
2019,04,26,09,49,9.50
2019,04,26,09,50,9.50
2019,04,26,09,51,9.60
2019,04,26,09,52,9.60
2019,04,26,09,53,9.60
2019,04,26,09,54,9.70
2019,04,26,09,55,9.70
2019,04,26,09,56,9.70
2019,04,26,09,57,9.80
2019,04,26,09,58,9.80
2019,04,26,09,59,9.80
2019,04,26,10,00,9.80
2019,04,26,10,01,9.80
2019,04,26,10,02,9.80
2019,04,26,10,03,9.80
2019,04,26,10,04,9.80
2019,04,26,10,05,9.80
2019,04,26,10,06,9.80
2019,04,26,10,07,9.80
2019,04,26,10,08,9.80
2019,04,26,10,09,9.80
2019,04,26,10,10,9.80
2019,04,26,10,11,9.90
2019,04,26,10,12,9.90
2019,04,26,10,13,10.00
2019,04,26,10,14,10.10
2019,04,26,10,15,10.20
2019,04,26,10,16,10.20
2019,04,26,10,17,10.30
2019,04,26,10,18,10.40
2019,04,26,10,19,10.40
2019,04,26,10,20,10.60
2019,04,26,10,21,10.70
2019,04,26,10,22,10.70
2019,04,26,10,23,10.80
2019,04,26,10,24,10.80
2019,04,26,10,25,10.90
2019,04,26,10,26,10.90
2019,04,26,10,27,10.80
2019,04,26,10,28,10.80
2019,04,26,10,29,10.80
2019,04,26,10,30,10.80
2019,04,26,10,31,10.90
2019,04,26,10,32,10.90
2019,04,26,10,33,11.00
2019,04,26,10,34,11.10
2019,04,26,10,35,11.20
2019,04,26,10,36,11.20
2019,04,26,10,37,11.30
2019,04,26,10,38,11.40
2019,04,26,10,39,11.50
2019,04,26,10,40,11.60
2019,04,26,10,41,11.70
2019,04,26,10,42,11.70
2019,04,26,10,43,11.70
2019,04,26,10,44,11.80
2019,04,26,10,45,11.80
2019,04,26,10,46,11.80
2019,04,26,10,47,11.90
2019,04,26,10,48,11.90
2019,04,26,10,49,11.90
2019,04,26,10,50,11.90
2019,04,26,10,51,11.80
2019,04,26,10,52,11.80
2019,04,26,10,53,11.70
2019,04,26,10,54,11.70
2019,04,26,10,55,11.70
2019,04,26,10,56,11.80
2019,04,26,10,57,11.80
2019,04,26,10,58,11.90
2019,04,26,10,59,11.90
2019,04,26,11,00,12.10
2019,04,26,11,01,12.10
2019,04,26,11,02,12.20
2019,04,26,11,03,12.20
2019,04,26,11,04,12.30
2019,04,26,11,05,12.30
2019,04,26,11,06,12.40
2019,04,26,11,08,12.50
2019,04,26,11,09,12.50
2019,04,26,11,10,12.40
2019,04,26,11,11,12.40
2019,04,26,11,12,12.40
2019,04,26,11,13,12.40
2019,04,26,11,14,12.30
2019,04,26,11,15,12.30
2019,04,26,11,16,12.30
2019,04,26,11,17,12.30
2019,04,26,11,18,12.30
2019,04,26,11,19,12.30
2019,04,26,11,20,12.30
2019,04,26,11,21,12.30
2019,04,26,11,22,12.40
2019,04,26,11,23,12.40
2019,04,26,11,24,12.50
2019,04,26,11,25,12.60
2019,04,26,11,26,12.70
2019,04,26,11,27,12.70
2019,04,26,11,28,12.80
2019,04,26,11,29,12.90
2019,04,26,11,30,12.90
2019,04,26,11,31,12.90
2019,04,26,11,32,12.90
2019,04,26,11,33,12.90
2019,04,26,11,34,13.00
2019,04,26,11,35,13.10
2019,04,26,11,36,13.20
2019,04,26,11,37,13.20
2019,04,26,11,38,13.30
2019,04,26,11,39,13.30
2019,04,26,11,40,13.40
2019,04,26,11,41,13.40
2019,04,26,11,42,13.50
2019,04,26,11,43,13.60
2019,04,26,11,44,13.60
2019,04,26,11,45,13.70
2019,04,26,11,46,13.70
2019,04,26,11,47,13.70
2019,04,26,11,48,13.70
2019,04,26,11,49,13.70
2019,04,26,11,50,13.70
2019,04,26,11,51,13.80
2019,04,26,11,52,13.80
2019,04,26,11,53,13.80
2019,04,26,11,54,13.70
2019,04,26,11,55,13.70
2019,04,26,11,56,13.70
2019,04,26,11,57,13.70
2019,04,26,11,58,13.60
2019,04,26,11,59,13.60
2019,04,26,12,00,13.60
2019,04,26,12,01,13.50
2019,04,26,12,02,13.50
2019,04,26,12,03,13.50
2019,04,26,12,04,13.50
2019,04,26,12,05,13.50
2019,04,26,12,06,13.60
2019,04,26,12,07,13.60
2019,04,26,12,08,13.60
2019,04,26,12,09,13.70
2019,04,26,12,10,13.80
2019,04,26,12,11,13.80
2019,04,26,12,12,13.80
2019,04,26,12,13,13.80
2019,04,26,12,14,13.90
2019,04,26,12,15,13.90
2019,04,26,12,16,14.10
2019,04,26,12,17,14.10
2019,04,26,12,18,14.10
2019,04,26,12,19,14.10
2019,04,26,12,20,14.20
2019,04,26,12,21,14.20
2019,04,26,12,22,14.20
2019,04,26,12,23,14.20
2019,04,26,12,24,14.30
2019,04,26,12,25,14.30
2019,04,26,12,26,14.30
2019,04,26,12,27,14.40
2019,04,26,12,28,14.40
2019,04,26,12,29,14.50
2019,04,26,12,30,14.50
2019,04,26,12,31,14.60
2019,04,26,12,32,14.60
2019,04,26,12,33,14.70
2019,04,26,12,34,14.80
2019,04,26,12,35,14.80
2019,04,26,12,36,14.80
2019,04,26,12,37,14.80
2019,04,26,12,38,14.80
2019,04,26,12,39,14.80
2019,04,26,12,40,14.90
2019,04,26,12,41,14.90
2019,04,26,12,42,14.90
2019,04,26,12,43,14.90
2019,04,26,12,44,14.90
2019,04,26,12,45,14.90
2019,04,26,12,46,15.10
2019,04,26,12,47,15.10
2019,04,26,12,48,15.20
2019,04,26,12,49,15.20
2019,04,26,12,50,15.20
2019,04,26,12,51,15.30
2019,04,26,12,52,15.20
2019,04,26,12,53,15.30
2019,04,26,12,54,15.30
2019,04,26,12,55,15.20
2019,04,26,12,56,15.20
2019,04,26,12,57,15.20
2019,04,26,12,58,15.20
2019,04,26,12,59,15.20
2019,04,26,13,00,15.20
2019,04,26,13,01,15.20
2019,04,26,13,02,15.20
2019,04,26,13,03,15.20
2019,04,26,13,04,15.20
2019,04,26,13,05,15.20
2019,04,26,13,07,15.20
2019,04,26,13,08,15.20
2019,04,26,13,09,15.20
2019,04,26,13,10,15.20
2019,04,26,13,11,15.30
2019,04,26,13,12,15.30
2019,04,26,13,13,15.40
2019,04,26,13,14,15.50
2019,04,26,13,15,15.50
2019,04,26,13,16,15.40
2019,04,26,13,17,15.30
2019,04,26,13,18,15.30
2019,04,26,13,19,15.30
2019,04,26,13,20,15.30
2019,04,26,13,21,15.20
2019,04,26,13,22,15.20
2019,04,26,13,23,15.20
2019,04,26,13,24,15.30
2019,04,26,13,25,15.30
2019,04,26,13,26,15.30
2019,04,26,13,27,15.30
2019,04,26,13,28,15.20
2019,04,26,13,29,15.20
2019,04,26,13,30,15.10
2019,04,26,13,31,15.10
2019,04,26,13,32,15.10
2019,04,26,13,33,15.10
2019,04,26,13,34,15.00
2019,04,26,13,35,15.00
2019,04,26,13,36,15.00
2019,04,26,13,37,15.10
2019,04,26,13,38,15.20
2019,04,26,13,39,15.20
2019,04,26,13,40,15.20
2019,04,26,13,41,15.20
2019,04,26,13,42,15.20
2019,04,26,13,43,15.20
2019,04,26,13,44,15.30
2019,04,26,13,45,15.30
2019,04,26,13,46,15.30
2019,04,26,13,47,15.30
2019,04,26,13,48,15.30
2019,04,26,13,49,15.40
2019,04,26,13,50,15.40
2019,04,26,13,51,15.40
2019,04,26,13,52,15.50
2019,04,26,13,53,15.60
2019,04,26,13,54,15.60
2019,04,26,13,55,15.50
2019,04,26,13,56,15.50
2019,04,26,13,57,15.50
2019,04,26,13,58,15.40
2019,04,26,13,59,15.30
2019,04,26,14,00,15.30
2019,04,26,14,01,15.20
2019,04,26,14,02,15.00
2019,04,26,14,03,14.90
2019,04,26,14,04,14.80
2019,04,26,14,05,14.70
2019,04,26,14,06,14.50
2019,04,26,14,07,14.40
2019,04,26,14,08,14.40
2019,04,26,14,09,14.40
2019,04,26,14,10,14.40
2019,04,26,14,11,14.40
2019,04,26,14,12,14.40
2019,04,26,14,13,14.40
2019,04,26,14,14,14.50
2019,04,26,14,15,14.40
2019,04,26,14,16,14.40
2019,04,26,14,17,14.40
2019,04,26,14,18,14.40
2019,04,26,14,19,14.40
2019,04,26,14,20,14.40
2019,04,26,14,21,14.40
2019,04,26,14,22,14.40
2019,04,26,14,23,14.40
2019,04,26,14,24,14.50
2019,04,26,14,25,14.60
2019,04,26,14,26,14.60
2019,04,26,14,27,14.70
2019,04,26,14,28,14.70
2019,04,26,14,29,14.70
2019,04,26,14,30,14.70
2019,04,26,14,31,14.60
2019,04,26,14,32,14.60
2019,04,26,14,33,14.60
2019,04,26,14,34,14.50
2019,04,26,14,35,14.60
2019,04,26,14,36,14.60
2019,04,26,14,37,14.60
2019,04,26,14,38,14.60
2019,04,26,14,39,14.50
2019,04,26,14,40,14.40
2019,04,26,14,41,14.40
2019,04,26,14,42,14.30
2019,04,26,14,43,14.20
2019,04,26,14,44,14.00
2019,04,26,14,45,13.90
2019,04,26,14,46,13.80
2019,04,26,14,47,13.80
2019,04,26,14,48,13.80
2019,04,26,14,49,13.80
2019,04,26,14,50,13.80
2019,04,26,14,51,13.80
2019,04,26,14,52,13.90
2019,04,26,14,53,13.90
2019,04,26,14,54,14.00
2019,04,26,14,55,13.90
2019,04,26,14,56,13.90
2019,04,26,14,57,13.90
2019,04,26,14,58,13.80
2019,04,26,14,59,13.80
2019,04,26,15,00,13.70
2019,04,26,15,01,13.70
2019,04,26,15,02,13.70
2019,04,26,15,03,13.80
2019,04,26,15,04,13.80
2019,04,26,15,05,13.80
2019,04,26,15,06,13.80
2019,04,26,15,07,13.80
2019,04,26,15,08,13.80
2019,04,26,15,09,13.80
2019,04,26,15,10,13.90
2019,04,26,15,11,13.90
2019,04,26,15,12,13.90
2019,04,26,15,13,14.00
2019,04,26,15,14,14.00
2019,04,26,15,15,14.00
2019,04,26,15,16,14.00
2019,04,26,15,18,14.00
2019,04,26,15,19,14.10
2019,04,26,15,20,14.10
2019,04,26,15,21,14.10
2019,04,26,15,22,14.10
2019,04,26,15,23,14.10
2019,04,26,15,24,14.10
2019,04,26,15,26,14.10
2019,04,26,15,27,14.10
2019,04,26,15,28,14.20
2019,04,26,15,29,14.20
2019,04,26,15,30,14.20
2019,04,26,15,31,14.30
2019,04,26,15,32,14.30
2019,04,26,15,33,14.30
2019,04,26,15,34,14.30
2019,04,26,15,35,14.20
2019,04,26,15,36,14.20
2019,04,26,15,37,14.10
2019,04,26,15,38,14.10
2019,04,26,15,39,14.00
2019,04,26,15,40,13.90
2019,04,26,15,41,13.90
2019,04,26,15,42,13.90
2019,04,26,15,43,13.90
2019,04,26,15,44,13.90
2019,04,26,15,45,13.90
2019,04,26,15,46,13.90
2019,04,26,15,47,13.80
2019,04,26,15,48,13.80
2019,04,26,15,49,13.80
2019,04,26,15,50,13.80
2019,04,26,15,51,13.80
2019,04,26,15,52,13.80
2019,04,26,15,53,13.90
2019,04,26,15,54,14.00
2019,04,26,15,55,14.10
2019,04,26,15,56,14.10
2019,04,26,15,57,14.10
2019,04,26,15,58,14.00
2019,04,26,15,59,14.00
2019,04,26,16,00,13.90
2019,04,26,16,01,13.90
2019,04,26,16,02,13.90
2019,04,26,16,03,13.90
2019,04,26,16,04,13.90
2019,04,26,16,05,13.90
2019,04,26,16,06,13.80
2019,04,26,16,07,13.80
2019,04,26,16,08,13.80
2019,04,26,16,09,13.70
2019,04,26,16,10,13.70
2019,04,26,16,11,13.70
2019,04,26,16,12,13.70
2019,04,26,16,13,13.60
2019,04,26,16,14,13.60
2019,04,26,16,15,13.50
2019,04,26,16,16,13.40
2019,04,26,16,17,13.30
2019,04,26,16,18,13.30
2019,04,26,16,19,13.30
2019,04,26,16,20,13.30
2019,04,26,16,21,13.30
2019,04,26,16,22,13.20
2019,04,26,16,23,13.20
2019,04,26,16,24,13.20
2019,04,26,16,25,13.20
2019,04,26,16,26,13.20
2019,04,26,16,27,13.20
2019,04,26,16,28,13.20
2019,04,26,16,29,13.20
2019,04,26,16,30,13.20
2019,04,26,16,31,13.20
2019,04,26,16,32,13.20
2019,04,26,16,33,13.20
2019,04,26,16,34,13.20
2019,04,26,16,35,13.10
2019,04,26,16,36,13.10
2019,04,26,16,37,13.10
2019,04,26,16,38,13.10
2019,04,26,16,39,13.10
2019,04,26,16,40,13.00
2019,04,26,16,41,13.00
2019,04,26,16,42,12.90
2019,04,26,16,43,12.90
2019,04,26,16,44,12.80
2019,04,26,16,45,12.80
2019,04,26,16,46,12.80
2019,04,26,16,47,12.70
2019,04,26,16,48,12.70
2019,04,26,16,49,12.60
2019,04,26,16,50,12.60
2019,04,26,16,51,12.60
2019,04,26,16,52,12.50
2019,04,26,16,53,12.50
2019,04,26,16,54,12.50
2019,04,26,16,55,12.50
2019,04,26,16,56,12.50
2019,04,26,16,57,12.50
2019,04,26,16,58,12.50
2019,04,26,16,59,12.50
2019,04,26,17,00,12.50
2019,04,26,17,01,12.50
2019,04,26,17,02,12.50
2019,04,26,17,03,12.50
2019,04,26,17,04,12.50
2019,04,26,17,05,12.50
2019,04,26,17,06,12.50
2019,04,26,17,07,12.40
2019,04,26,17,08,12.40
2019,04,26,17,09,12.40
2019,04,26,17,10,12.40
2019,04,26,17,11,12.40
2019,04,26,17,12,12.40
2019,04,26,17,13,12.40
2019,04,26,17,14,12.40
2019,04,26,17,15,12.40
2019,04,26,17,16,12.40
2019,04,26,17,17,12.40
2019,04,26,17,18,12.30
2019,04,26,17,19,12.30
2019,04,26,17,20,12.30
2019,04,26,17,22,12.30
2019,04,26,17,23,12.30
2019,04,26,17,24,12.30
2019,04,26,17,25,12.30
2019,04,26,17,26,12.20
2019,04,26,17,27,12.20
2019,04,26,17,28,12.20
2019,04,26,17,29,12.20
2019,04,26,17,30,12.20
2019,04,26,17,31,12.20
2019,04,26,17,32,12.20
2019,04,26,17,33,12.20
2019,04,26,17,34,12.20
2019,04,26,17,35,12.20
2019,04,26,17,36,12.30
2019,04,26,17,37,12.30
2019,04,26,17,38,12.40
2019,04,26,17,39,12.40
2019,04,26,17,40,12.50
2019,04,26,17,41,12.60
2019,04,26,17,42,12.60
2019,04,26,17,43,12.60
2019,04,26,17,44,12.60
2019,04,26,17,45,12.60
2019,04,26,17,46,12.60
2019,04,26,17,47,12.40
2019,04,26,17,48,12.40
2019,04,26,17,49,12.40
2019,04,26,17,50,12.40
2019,04,26,17,51,12.40
2019,04,26,17,52,12.40
2019,04,26,17,53,12.30